AE7VB Weather Reports


Display with metric or nautical units.
time (UTC)temp
F
wind
direction
speed
MPH
gust
MPH
rain 1hr
in
rain 24hr
in
rain mn
in
humidity
%
barometer
mb
20260508220036 67 297 2.0 13.0 0.00 0.00 0.00 29 1020.1
20260508215035 67 273 3.0 12.0 0.00 0.00 0.00 27 1020.1
20260508214003 68 248 2.0 12.0 0.00 0.00 0.00 25 1020.2
20260508213001 67 263 2.0 13.0 0.00 0.00 0.00 26 1020.1
20260508212000 66 257 2.0 11.0 0.00 0.00 0.00 28 1020.4
20260508210959 67 263 3.0 10.0 0.00 0.00 0.00 27 1020.5
20260508205927 67 261 2.0 9.0 0.00 0.00 0.00 26 1020.6
20260508204925 66 260 2.0 9.0 0.00 0.00 0.00 26 1020.6
20260508203924 67 264 3.0 10.0 0.00 0.00 0.00 27 1020.3
20260508202923 67 252 2.0 10.0 0.00 0.00 0.00 28 1020.3
20260508201922 67 259 2.0 12.0 0.00 0.00 0.00 27 1020.7
20260508200921 67 255 2.0 12.0 0.00 0.00 0.00 27 1020.7
20260508195920 67 271 2.0 11.0 0.00 0.00 0.00 30 1020.4
20260508194919 66 251 3.0 11.0 0.00 0.00 0.00 27 1020.6
20260508193918 66 267 2.0 10.0 0.00 0.00 0.00 28 1020.7
20260508192846 67 253 2.0 15.0 0.00 0.00 0.00 28 1020.8
20260508191711 65 257 3.0 15.0 0.00 0.00 0.00 29 1020.7
20260508190639 65 255 3.0 13.0 0.00 0.00 0.00 26 1020.7
20260508185637 64 271 2.0 10.0 0.00 0.00 0.00 30 1020.7
20260508184636 65 253 2.0 14.0 0.00 0.00 0.00 27 1020.7
20260508183634 64 256 2.0 14.0 0.00 0.00 0.00 24 1020.6
20260508182634 65 234 3.0 11.0 0.00 0.00 0.00 22 1020.6
20260508181633 65 245 2.0 11.0 0.00 0.00 0.00 26 1020.7
20260508180632 65 233 2.0 9.0 0.00 0.00 0.00 25 1020.6
20260508175631 64 236 2.0 11.0 0.00 0.00 0.00 24 1020.6
20260508174631 63 233 2.0 12.0 0.00 0.00 0.00 27 1020.6
20260508173630 64 225 3.0 12.0 0.00 0.00 0.00 27 1020.7
20260508172629 66 223 3.0 12.0 0.00 0.00 0.00 27 1020.9
20260508171557 65 241 1.0 11.0 0.00 0.00 0.00 28 1020.9
20260508170556 65 255 2.0 11.0 0.00 0.00 0.00 28 1020.9
20260508165555 64 247 3.0 13.0 0.00 0.00 0.00 28 1020.9
20260508164554 64 259 2.0 13.0 0.00 0.00 0.00 30 1020.8
20260508163553 64 247 2.0 12.0 0.00 0.00 0.00 31 1020.9
20260508162552 63 236 3.0 14.0 0.00 0.00 0.00 30 1020.9
20260508161551 62 263 2.0 14.0 0.00 0.00 0.00 32 1020.8
20260508160550 62 265 2.0 10.0 0.00 0.00 0.00 32 1020.7
20260508155549 61 268 1.0 10.0 0.00 0.00 0.00 33 1020.7
20260508154548 60 256 3.0 7.0 0.00 0.00 0.00 51 1020.8
20260508153547 59 321 1.0 4.0 0.00 0.00 0.00 48 1020.8
20260508152546 58 16 1.0 4.0 0.00 0.00 0.00 55 1020.9
20260508151545 58 355 1.0 4.0 0.00 0.00 0.00 56 1021.0
20260508150543 57 34 1.0 4.0 0.00 0.00 0.00 61 1021.2
20260508145543 57 62 1.0 3.0 0.00 0.00 0.00 62 1021.3
20260508144511 56 39 1.0 3.0 0.00 0.00 0.00 62 1021.2
20260508143509 54 58 1.0 3.0 0.00 0.00 0.00 64 1021.1
20260508142508 54 327 2.0 3.0 0.00 0.00 0.00 67 1020.7
20260508141507 53 272 1.0 4.0 0.00 0.00 0.00 65 1020.7
20260508140506 52 272 0.0 4.0 0.00 0.00 0.00 65 1020.6
20260508135434 51 261 2.0 3.0 0.00 0.00 0.00 70 1020.5
20260508134434 49 148 0.0 3.0 0.00 0.00 0.00 71 1020.4
20260508133432 48 149 1.0 3.0 0.00 0.00 0.00 71 1020.2
20260508132401 46 154 1.0 2.0 0.00 0.00 0.00 73 1019.7
20260508131400 45 153 1.0 2.0 0.00 0.00 0.00 74 1019.7
20260508130358 44 151 0.0 3.0 0.00 0.00 0.00 74 1019.6
20260508125357 44 152 0.0 3.0 0.00 0.00 0.00 74 1019.5
20260508124356 43 151 0.0 1.0 0.00 0.00 0.00 74 1019.5
20260508123355 43 151 1.0 1.0 0.00 0.00 0.00 75 1019.6
20260508122354 43 150 0.0 1.0 0.00 0.00 0.00 74 1019.7
20260508121352 44 151 0.0 2.0 0.00 0.00 0.00 73 1019.7
20260508120351 44 151 1.0 3.0 0.00 0.00 0.00 74 1019.8
20260508115350 45 151 1.0 5.0 0.00 0.00 0.00 75 1019.5
20260508114350 46 150 2.0 6.0 0.00 0.00 0.00 75 1020.0
20260508113349 46 149 2.0 5.0 0.00 0.00 0.00 75 1019.7
20260508112348 46 156 1.0 5.0 0.00 0.00 0.00 75 1019.8
20260508111316 46 151 2.0 5.0 0.00 0.00 0.00 75 1019.8
20260508110244 47 148 2.0 5.0 0.00 0.00 0.00 77 1019.9
20260508105243 47 155 2.0 5.0 0.00 0.00 0.00 79 1019.8
20260508104242 47 156 2.0 5.0 0.00 0.00 0.00 79 1019.9
20260508103240 47 155 1.0 5.0 0.00 0.00 0.00 79 1019.8
20260508102208 47 148 2.0 5.0 0.00 0.00 0.00 79 1019.9
20260508101207 47 154 2.0 5.0 0.00 0.00 0.00 79 1019.6
20260508100206 47 151 1.0 3.0 0.00 0.00 0.00 78 1019.5
20260508095205 47 154 0.0 0.0 0.00 0.00 0.00 78 1019.6
20260508094204 47 155 0.0 0.0 0.00 0.00 0.00 78 1020.0
20260508093132 48 154 0.0 0.0 0.00 0.00 0.00 77 1019.7
20260508092100 48 155 0.0 0.0 0.00 0.00 0.00 76 1019.7
20260508091059 49 153 0.0 0.0 0.00 0.00 0.00 76 1019.7
20260508090058 49 155 0.0 0.0 0.00 0.00 0.00 75 1019.8
20260508085057 49 154 0.0 0.0 0.00 0.00 0.00 75 1019.8
20260508084057 49 154 0.0 0.0 0.00 0.00 0.00 75 1019.8
20260508083056 49 154 0.0 0.0 0.00 0.00 0.00 75 1019.8
20260508082055 49 155 0.0 0.0 0.00 0.00 0.00 75 1019.8
20260508081054 50 154 0.0 0.0 0.00 0.00 0.00 75 1019.7
20260508075951 50 151 0.0 0.0 0.00 0.00 0.00 75 1019.8
20260508074950 50 151 0.0 0.0 0.00 0.00 0.00 75 1019.9
20260508073949 50 150 0.0 0.0 0.00 0.00 0.00 74 1019.8
20260508072948 51 151 0.0 0.0 0.00 0.00 0.00 74 1019.9
20260508071947 51 151 0.0 1.0 0.00 0.00 0.00 73 1019.9
20260508070914 51 151 0.0 1.0 0.00 0.00 0.00 73 1019.8
20260508065914 52 152 0.0 1.0 0.00 0.00 0.00 73 1019.4
20260508064913 52 151 0.0 5.0 0.00 0.00 0.00 73 1019.5
20260508063912 52 154 2.0 3.0 0.00 0.00 0.00 73 1019.4
20260508062911 52 156 2.0 2.0 0.00 0.00 0.00 73 1019.8
20260508061910 52 156 1.0 3.0 0.00 0.00 0.00 73 1019.5
20260508060909 52 160 2.0 4.0 0.00 0.00 0.00 73 1019.3
20260508055908 52 176 0.0 0.0 0.00 0.00 0.00 73 1019.3
20260508054907 52 179 0.0 0.0 0.00 0.00 0.00 73 1019.3
20260508053906 53 180 0.0 0.0 0.00 0.00 0.00 72 1019.6
20260508052834 53 169 0.0 1.0 0.00 0.00 0.00 71 1019.3
20260508051833 53 169 0.0 2.0 0.00 0.00 0.00 70 1019.5
20260508050831 54 169 0.0 4.0 0.00 0.00 0.00 71 1019.5
20260508045830 54 159 1.0 3.0 0.00 0.00 0.00 70 1019.1
20260508044829 54 158 0.0 3.0 0.00 0.00 0.00 70 1019.1
20260508043828 54 157 1.0 3.0 0.00 0.00 0.00 70 1019.2
20260508042827 55 157 1.0 3.0 0.00 0.00 0.00 69 1019.2
20260508041826 55 149 0.0 2.0 0.00 0.00 0.00 68 1019.1
20260508040826 56 149 1.0 3.0 0.00 0.00 0.00 67 1019.1
20260508035824 56 154 1.0 3.0 0.00 0.00 0.00 66 1019.2
20260508034823 57 156 1.0 3.0 0.00 0.00 0.00 65 1018.9
20260508033751 57 156 2.0 3.0 0.00 0.00 0.00 63 1018.9
20260508032749 59 148 0.0 2.0 0.00 0.00 0.00 61 1019.0
20260508031748 61 129 1.0 2.0 0.00 0.00 0.00 57 1018.9
20260508030747 62 24 0.0 3.0 0.00 0.00 0.00 54 1019.1
20260508025746 63 25 0.0 3.0 0.00 0.00 0.00 52 1019.2
20260508024713 64 24 2.0 4.0 0.00 0.00 0.00 50 1019.2
20260508023712 64 23 1.0 4.0 0.00 0.00 0.00 48 1019.2
20260508022639 65 19 1.0 4.0 0.00 0.00 0.00 47 1018.9
20260508021639 65 18 1.0 4.0 0.00 0.00 0.00 46 1018.9
20260508020637 65 21 1.0 3.0 0.00 0.00 0.00 46 1018.8
20260508015636 66 12 2.0 3.0 0.00 0.00 0.00 44 1018.8
20260508014635 66 25 1.0 4.0 0.00 0.00 0.00 42 1018.8
20260508013532 67 8 1.0 4.0 0.00 0.00 0.00 41 1018.8
20260508012531 67 11 2.0 8.0 0.00 0.00 0.00 41 1018.7
20260508011529 68 9 2.0 8.0 0.00 0.00 0.00 43 1018.6
20260508010529 68 8 2.0 4.0 0.00 0.00 0.00 44 1018.4
20260508005528 68 20 2.0 4.0 0.00 0.00 0.00 46 1018.3
20260508004527 69 346 1.0 4.0 0.00 0.00 0.00 46 1018.3
20260508003526 69 20 1.0 5.0 0.00 0.00 0.00 47 1018.3
20260508002525 70 7 2.0 5.0 0.00 0.00 0.00 44 1018.3
20260508001524 69 334 1.0 6.0 0.00 0.00 0.00 44 1017.9
20260508000523 69 19 2.0 7.0 0.00 0.00 0.00 45 1017.9
20260507235522 69 7 1.0 4.0 0.00 0.00 0.00 46 1017.9
20260507234521 70 3 1.0 4.0 0.00 0.00 0.00 41 1018.0
20260507233448 70 328 1.0 5.0 0.00 0.00 0.00 38 1018.1
20260507232448 70 352 1.0 10.0 0.00 0.00 0.00 38 1018.2
20260507231446 70 287 3.0 10.0 0.00 0.00 0.00 32 1018.2
20260507230445 70 264 4.0 9.0 0.00 0.00 0.00 31 1018.3
20260507225443 70 282 3.0 9.0 0.00 0.00 0.00 33 1018.7
20260507224442 70 287 3.0 11.0 0.00 0.00 0.00 33 1018.8
20260507223441 70 287 4.0 11.0 0.00 0.00 0.00 35 1018.9
20260507222439 70 275 1.0 9.0 0.00 0.00 0.00 34 1019.1
20260507221439 70 287 3.0 9.0 0.00 0.00 0.00 35 1019.1
20260507220437 70 289 2.0 9.0 0.00 0.00 0.00 34 1019.1